QPF
0.00 0.00 0.00 0.00 0.00 0.00 0.00 0.00 0.00 0.00 0.00 0.00 0.00 0.00 0.00 0.00 0.00 0.00 0.00 0.00 0.00 0.00 0.00 0.00 0.00 0.00 0.00 0.00 0.00 0.00 0.00 0.00 0.00 0.00 0.00 0.00 0.00 0.00 0.00 0.00 0.00 0.00 0.00 0.00
0.00 0.00 0.00 0.00 0.00 0.00 0.00 0.00 0.00 0.00 0.00 0.00 0.00 0.00 0.00 0.00 0.00 0.00 0.00 0.00 0.00 0.00 0.00 0.00 0.00 0.00 0.00 0.00 0.00 0.00 0.00 0.00 0.00 0.00 0.00 0.00 0.00 0.00 0.00 0.00 0.00 0.00 0.00 0.00
0.00 0.00 0.00 0.00 0.00 0.00 0.00 0.00 0.00 0.00 0.00 0.00 0.00 0.00 0.00 0.00 0.00 0.00 0.00 0.00 0.00 0.00 0.00 0.00 0.00 0.00 0.00 0.00 0.00 0.00 0.00 0.00 0.00 0.00 0.00 0.00 0.00 0.00 0.00 0.00 0.00 0.00 0.00 0.00
0.00 0.00 0.00 0.00 0.00 0.00 0.00 0.00 0.00 0.00 0.00 0.00 0.00 0.00 0.00 0.00 0.00 0.00 0.00 0.00 0.00 0.00 0.00 0.00 0.00 0.00 0.00 0.00 0.00 0.00 0.00 0.00 0.00 0.00 0.00 0.00 0.00 0.00 0.00 0.00 0.00 0.00 0.00 0.00
0.00 0.00 0.00 0.00 0.00 0.00 0.00 0.00 0.00 0.00 0.00 0.00 0.00 0.00 0.00 0.00 0.00 0.00 0.00 0.00 0.00 0.00 0.00 0.00 0.00 0.00 0.00 0.00 0.00 0.00 0.00 0.00 0.00 0.00 0.00 0.00 0.00 0.00 0.00 0.00 0.00 0.00 0.00 0.00
0.00 0.00 0.00 0.00 0.00 0.00 0.00 0.00 0.00 0.00 0.00 0.00 0.00 0.00 0.00 0.00 0.00 0.00 0.00 0.00 0.00 0.00 0.00 0.00 0.00 0.00 0.00 0.00 0.00 0.00 0.00 0.00 0.00 0.00 0.00 0.00 0.00 0.00 0.00 0.00 0.00 0.00 0.00 0.00
0.00 0.00 0.00 0.00 0.00 0.00 0.00 0.00 0.00 0.00 0.00 0.00 0.00 0.00 0.00 0.00 0.00 0.00 0.00 0.00 0.00 0.00 0.00 0.00 0.00 0.00 0.00 0.00 0.00 0.00 0.00 0.00 0.00 0.00 0.00 0.00 0.00 0.00 0.00 0.00 0.00 0.00 0.00 0.00
0.00 0.00 0.00 0.00 0.00 0.00 0.00 0.00 0.00 0.00 0.00 0.00 0.00 0.00 0.00 0.00 0.00 0.00 0.00 0.00 0.00 0.00 0.00 0.00 0.00 0.00 0.00 0.00 0.00 0.00 0.00 0.00 0.00 0.00 0.00 0.00 0.00 0.00 0.00 0.00 0.00 0.00 0.00 0.00
0.00 0.00 0.00 0.00 0.00 0.00 0.00 0.00 0.00 0.01 0.00 0.00 0.00 0.00 0.00 0.01 0.00 0.00 0.00 0.00 0.00 0.00 0.00 0.00 0.00 0.00 0.00 0.00 0.00 0.00 0.00 0.00 0.00 0.00 0.00 0.00 0.00 0.00 0.00 0.00 0.00 0.00 0.00 0.00
0.00 0.00 0.00 0.00 0.00 0.00 0.00 0.00 0.01 0.01 0.01 0.00 0.00 0.00 0.00 0.00 0.00 0.00 0.00 0.00 0.00 0.00 0.00 0.00 0.00 0.00 0.00 0.00 0.00 0.00 0.00 0.00 0.00 0.00 0.00 0.00 0.00 0.00 0.00 0.00 0.00 0.00 0.00 0.00
0.00 0.00 0.00 0.00 0.00 0.00 0.00 0.00 0.00 0.02 0.01 0.01 0.00 0.00 0.00 0.00 0.00 0.00 0.00 0.00 0.00 0.00 0.00 0.00 0.00 0.00 0.00 0.00 0.00 0.00 0.00 0.00 0.00 0.00 0.00 0.00 0.00 0.00 0.00 0.00 0.00 0.00 0.00 0.00
0.00 0.00 0.00 0.00 0.00 0.00 0.00 0.00 0.00 0.02 0.01 0.01 0.02 0.01 0.00 0.00 0.00 0.00 0.00 0.00 0.00 0.00 0.00 0.00 0.00 0.00 0.00 0.00 0.00 0.00 0.00 0.00 0.00 0.00 0.00 0.00 0.00 0.00 0.00 0.00 0.00 0.00 0.00 0.00
0.00 0.00 0.00 0.00 0.00 0.00 0.00 0.00 0.00 0.00 0.00 0.00 0.02 0.00 0.00 0.00 0.00 0.00 0.00 0.00 0.00 0.00 0.00 0.00 0.00 0.00 0.00 0.00 0.00 0.00 0.00 0.00 0.00 0.00 0.00 0.00 0.00 0.00 0.00 0.00 0.00 0.00 0.00 0.00
0.00 0.00 0.00 0.00 0.00 0.00 0.00 0.00 0.00 0.00 0.00 0.00 0.00 0.00 0.00 0.00 0.00 0.00 0.00 0.00 0.00 0.00 0.00 0.00 0.00 0.00 0.00 0.00 0.00 0.00 0.00 0.00 0.00 0.00 0.00 0.00 0.00 0.00 0.00 0.00 0.00 0.00 0.00 0.00
0.00 0.00 0.00 0.00 0.00 0.00 0.00 0.00 0.00 0.00 0.00 0.00 0.00 0.00 0.00 0.00 0.00 0.00 0.00 0.00 0.00 0.00 0.00 0.00 0.00 0.00 0.00 0.00 0.00 0.00 0.00 0.00 0.00 0.00 0.00 0.00 0.00 0.00 0.00 0.00 0.00 0.00 0.00 0.00
0.00 0.01 0.00 0.00 0.00 0.00 0.00 0.00 0.00 0.00 0.00 0.00 0.00 0.00 0.00 0.00 0.00 0.00 0.00 0.00 0.00 0.00 0.00 0.00 0.00 0.00 0.00 0.00 0.00 0.00 0.00 0.00 0.00 0.00 0.00 0.00 0.00 0.00 0.00 0.00 0.00 0.00 0.00 0.00
0.00 0.01 0.00 0.00 0.00 0.00 0.00 0.00 0.00 0.00 0.00 0.00 0.00 0.00 0.00 0.00 0.00 0.00 0.00 0.00 0.00 0.00 0.00 0.00 0.00 0.00 0.00 0.00 0.00 0.00 0.00 0.00 0.00 0.00 0.00 0.00 0.00 0.00 0.00 0.00 0.00 0.00 0.00 0.00
0.00 0.00 0.00 0.00 0.00 0.00 0.00 0.00 0.00 0.00 0.00 0.00 0.00 0.00 0.00 0.00 0.00 0.00 0.00 0.00 0.00 0.00 0.00 0.00 0.00 0.00 0.00 0.00 0.00 0.00 0.00 0.00 0.00 0.00 0.00 0.00 0.00 0.00 0.00 0.00 0.00 0.00 0.00 0.00
0.00 0.00 0.00 0.00 0.00 0.00 0.00 0.00 0.00 0.00 0.00 0.00 0.00 0.00 0.00 0.00 0.00 0.00 0.00 0.00 0.01 0.00 0.00 0.00 0.00 0.00 0.00 0.00 0.00 0.00 0.00 0.00 0.00 0.00 0.00 0.00 0.00 0.00 0.00 0.00 0.00 0.00 0.00 0.00
0.00 0.00 0.00 0.00 0.00 0.00 0.00 0.00 0.00 0.00 0.00 0.00 0.00 0.00 0.00 0.00 0.00 0.01 0.01 0.04 0.01 0.00 0.00 0.00 0.00 0.00 0.00 0.00 0.00 0.00 0.00 0.00 0.00 0.00 0.00 0.00 0.00 0.00 0.00 0.00 0.00 0.00 0.00 0.00
0.00 0.00 0.00 0.00 0.00 0.00 0.00 0.00 0.00 0.00 0.01 0.00 0.00 0.00 0.00 0.00 0.00 0.01 0.01 0.01 0.00 0.00 0.00 0.00 0.00 0.00 0.00 0.00 0.00 0.00 0.00 0.00 0.00 0.00 0.00 0.00 0.00 0.00 0.00 0.00 0.00 0.00 0.00 0.00
0.00 0.00 0.01 0.02 0.02 0.01 0.00 0.00 0.01 0.01 0.00 0.00 0.00 0.00 0.00 0.01 0.01 0.00 0.00 0.00 0.00 0.00 0.00 0.00 0.00 0.00 0.00 0.00 0.00 0.00 0.00 0.00 0.00 0.00 0.00 0.00 0.00 0.00 0.00 0.00 0.00 0.00 0.00 0.00
0.00 0.00 0.00 0.00 0.01 0.00 0.00 0.00 0.00 0.00 0.00 0.00 0.00 0.00 0.01 0.02 0.01 0.00 0.00 0.00 0.00 0.00 0.00 0.00 0.00 0.00 0.00 0.00 0.00 0.00 0.00 0.00 0.00 0.00 0.00 0.00 0.00 0.00 0.00 0.00 0.00 0.00 0.00 0.00
0.00 0.00 0.00 0.01 0.00 0.00 0.00 0.00 0.00 0.00 0.00 0.00 0.00 0.00 0.01 0.02 0.02 0.00 0.00 0.00 0.00 0.00 0.00 0.00 0.00 0.00 0.00 0.00 0.00 0.00 0.00 0.00 0.00 0.00 0.00 0.00 0.00 0.00 0.00 0.00 0.00 0.00 0.00 0.00
0.00 0.00 0.00 0.00 0.00 0.00 0.00 0.00 0.00 0.00 0.00 0.00 0.00 0.00 0.01 0.01 0.02 0.00 0.00 0.00 0.00 0.00 0.00 0.00 0.00 0.00 0.00 0.00 0.00 0.00 0.00 0.00 0.00 0.00 0.00 0.00 0.00 0.00 0.00 0.00 0.00 0.00 0.00 0.00
0.00 0.00 0.00 0.00 0.00 0.00 0.00 0.00 0.00 0.00 0.00 0.00 0.00 0.01 0.01 0.01 0.00 0.00 0.00 0.00 0.00 0.00 0.00 0.00 0.00 0.00 0.00 0.00 0.00 0.00 0.00 0.00 0.00 0.00 0.00 0.00 0.00 0.00 0.00 0.00 0.00 0.00 0.00 0.00
MSLP
1009.37 1009.23 1008.46 1008.05 1007.62 1007.04 1006.33 1005.42 1004.22 1003.15 1002.21 1001.62 1001.26 1000.89 1000.76 1000.81 1000.63 1000.37 1000.37 1000.87 1001.38 1001.66 1001.94 1002.81 1003.82 1005.42 1007.26 1008.78 1010.08 1011.19 1012.45 1013.21 1013.80 1014.30 1014.71 1015.11 1015.58 1015.95 1016.32 1016.77 1017.18 1017.49 1017.98 1017.83
1008.63 1007.74 1007.60 1007.35 1006.90 1006.30 1005.57 1005.06 1004.51 1003.80 1003.20 1002.67 1002.00 1001.17 1001.02 1000.94 1000.62 1000.31 1000.06 1000.02 1000.63 1001.37 1001.62 1001.98 1003.15 1005.00 1006.87 1008.67 1010.22 1011.52 1012.66 1013.61 1014.12 1014.35 1014.45 1014.78 1015.20 1015.83 1016.53 1017.15 1017.46 1017.64 1017.92 1018.28
1007.37 1006.39 1006.04 1006.22 1006.51 1006.06 1005.61 1005.46 1005.23 1004.67 1004.08 1003.14 1002.66 1001.32 1001.46 1000.52 999.88 999.51 999.36 999.50 999.95 1000.72 1001.67 1002.01 1003.19 1004.83 1006.49 1008.10 1009.57 1011.09 1012.39 1013.43 1014.15 1014.29 1014.46 1014.69 1015.18 1015.95 1016.69 1017.23 1017.78 1017.85 1017.94 1018.12
1006.61 1006.38 1005.88 1005.99 1006.02 1006.32 1005.65 1005.64 1005.56 1005.21 1004.84 1003.74 1003.70 1001.29 1001.53 1000.76 999.81 999.06 998.81 999.25 999.94 1000.54 1001.16 1002.18 1003.30 1004.73 1006.06 1007.57 1008.80 1010.16 1011.30 1012.56 1013.65 1014.07 1014.34 1015.02 1015.39 1015.83 1016.36 1016.97 1017.54 1018.05 1018.09 1018.33
1006.38 1006.14 1005.99 1005.85 1006.09 1006.18 1005.80 1006.13 1006.14 1006.18 1006.07 1005.31 1004.52 1003.69 1001.48 1000.81 1000.06 1000.17 1000.98 1001.21 1001.85 1002.31 1002.75 1002.50 1003.14 1004.38 1005.50 1007.26 1008.82 1010.14 1011.07 1011.89 1012.87 1013.70 1014.30 1015.08 1015.73 1015.90 1016.04 1016.65 1017.43 1018.10 1018.31 1018.47
1006.76 1006.49 1006.30 1006.09 1006.22 1006.64 1006.99 1006.99 1006.97 1007.09 1006.82 1005.69 1005.03 1004.28 1001.21 1001.46 1001.84 1001.98 1002.54 1003.11 1003.79 1004.22 1004.30 1004.25 1004.07 1003.96 1006.01 1007.86 1009.31 1010.36 1011.26 1011.93 1012.50 1013.45 1014.35 1015.23 1015.73 1015.63 1016.09 1016.78 1017.38 1018.04 1018.25 1018.45
1006.92 1006.22 1006.06 1006.16 1006.48 1007.04 1007.49 1007.69 1007.63 1007.67 1007.41 1006.16 1004.86 1003.87 1002.60 1002.81 1003.32 1003.51 1004.04 1004.65 1005.18 1005.66 1005.98 1005.82 1005.83 1006.35 1007.27 1008.46 1009.58 1010.34 1011.16 1011.74 1012.30 1013.01 1014.14 1014.97 1015.61 1015.85 1016.46 1017.05 1017.43 1017.84 1018.47 1018.85
1006.00 1005.01 1004.83 1005.15 1005.57 1006.33 1006.78 1007.59 1007.80 1007.54 1007.55 1006.79 1005.84 1004.18 1003.60 1003.41 1004.28 1004.87 1005.11 1005.74 1006.23 1006.53 1007.11 1007.13 1007.04 1007.41 1007.74 1008.41 1009.32 1010.38 1011.04 1011.79 1012.35 1012.83 1013.59 1014.35 1015.00 1015.41 1016.04 1016.82 1017.17 1017.56 1018.04 1018.77
1005.95 1005.06 1004.93 1005.52 1005.57 1005.99 1006.81 1007.32 1007.96 1008.14 1008.60 1008.73 1006.71 1004.81 1004.04 1005.61 1006.24 1006.14 1005.98 1006.53 1006.58 1006.50 1007.00 1007.15 1007.49 1007.71 1007.96 1008.51 1009.10 1010.05 1010.74 1011.65 1012.27 1012.88 1013.41 1014.14 1014.52 1014.95 1015.66 1016.31 1016.90 1017.46 1017.95 1018.79
1007.07 1006.64 1005.83 1006.22 1006.53 1006.53 1006.61 1007.73 1008.09 1008.94 1008.94 1008.54 1006.31 1005.82 1005.68 1006.45 1006.68 1006.34 1006.43 1006.73 1006.85 1006.58 1006.92 1007.57 1007.87 1007.96 1008.28 1008.55 1009.00 1009.92 1011.02 1011.73 1012.25 1012.65 1013.18 1013.96 1014.75 1015.36 1015.68 1016.09 1016.84 1017.65 1018.19 1018.72
1007.87 1007.48 1006.54 1006.61 1007.31 1006.90 1007.28 1007.93 1008.87 1009.10 1009.44 1008.82 1007.66 1006.13 1006.45 1006.99 1007.29 1006.55 1006.54 1006.78 1006.88 1006.83 1007.20 1007.91 1008.41 1008.46 1008.51 1008.89 1009.44 1010.23 1011.12 1011.84 1012.51 1013.11 1013.58 1014.15 1014.90 1015.49 1016.13 1016.47 1017.15 1017.78 1018.39 1019.04
1008.27 1008.33 1007.55 1007.18 1007.36 1007.94 1008.35 1009.09 1009.64 1010.04 1009.47 1009.30 1008.52 1006.27 1005.58 1006.35 1006.60 1006.59 1006.58 1006.59 1006.82 1006.84 1007.22 1007.89 1008.48 1008.67 1008.93 1009.19 1009.80 1010.72 1011.63 1012.46 1013.13 1013.79 1014.20 1014.69 1015.11 1016.01 1016.51 1017.11 1017.85 1018.32 1018.68 1019.24
1009.52 1009.78 1009.53 1008.67 1008.35 1008.53 1009.05 1009.45 1009.86 1009.72 1009.69 1008.98 1009.08 1006.94 1006.41 1005.90 1005.80 1006.05 1006.19 1006.57 1006.66 1006.54 1006.85 1007.39 1007.84 1008.58 1009.27 1009.70 1009.83 1010.55 1011.55 1012.47 1013.26 1013.65 1014.55 1015.23 1015.81 1016.18 1016.89 1017.80 1018.22 1018.86 1019.36 1019.52
1011.12 1010.86 1010.65 1010.27 1009.60 1010.46 1010.47 1010.43 1010.43 1010.67 1010.07 1009.31 1008.65 1007.78 1006.61 1006.40 1006.20 1005.97 1006.03 1006.18 1006.34 1006.51 1006.82 1007.14 1007.57 1008.72 1009.55 1010.09 1010.60 1010.76 1010.94 1011.57 1012.60 1013.47 1014.33 1015.18 1016.02 1016.91 1017.73 1018.39 1018.90 1019.26 1019.62 1020.10
1012.19 1012.43 1012.53 1012.18 1011.82 1011.70 1011.47 1010.87 1010.30 1010.14 1010.03 1009.74 1009.52 1008.27 1006.95 1006.36 1006.18 1006.15 1006.12 1006.18 1006.20 1006.32 1006.68 1007.22 1007.99 1008.83 1009.74 1010.36 1010.86 1011.41 1011.52 1011.70 1012.02 1012.97 1013.95 1014.89 1015.91 1017.18 1018.16 1018.89 1019.77 1020.14 1020.29 1020.57
1012.58 1013.19 1013.77 1013.41 1013.32 1012.85 1012.07 1010.63 1010.11 1009.88 1009.55 1009.01 1008.36 1007.35 1007.10 1006.74 1006.29 1006.12 1006.25 1006.06 1005.74 1006.13 1006.89 1007.64 1008.20 1008.76 1009.48 1010.28 1010.91 1011.37 1011.72 1011.90 1012.26 1012.88 1013.69 1014.66 1015.99 1017.02 1017.93 1018.99 1019.94 1020.67 1020.74 1021.21
1012.49 1013.30 1013.86 1013.13 1013.34 1012.64 1011.52 1010.20 1009.68 1009.18 1008.94 1008.50 1007.74 1007.06 1006.80 1006.47 1006.01 1005.88 1005.77 1005.72 1006.13 1006.73 1007.47 1008.06 1008.56 1009.03 1009.67 1010.29 1010.82 1011.39 1011.89 1012.28 1012.57 1013.32 1014.17 1015.20 1016.19 1017.37 1018.02 1019.06 1019.94 1021.01 1020.99 1021.95
1012.81 1013.26 1013.92 1013.46 1013.85 1012.74 1010.51 1009.56 1009.23 1008.64 1008.05 1007.60 1006.86 1006.40 1006.12 1005.60 1005.42 1005.67 1005.89 1006.29 1007.18 1007.75 1008.31 1008.80 1009.41 1009.78 1010.07 1010.50 1011.20 1011.75 1011.90 1012.50 1013.18 1013.85 1014.78 1015.97 1017.13 1018.13 1018.89 1019.81 1020.48 1020.97 1020.99 1021.72
1012.87 1013.47 1013.95 1013.75 1012.92 1011.87 1010.04 1009.20 1008.89 1008.23 1007.80 1007.48 1007.05 1006.58 1005.90 1005.68 1005.60 1005.65 1006.74 1007.89 1009.16 1009.58 1009.19 1009.76 1010.35 1010.62 1010.67 1011.12 1011.56 1012.14 1013.00 1012.89 1014.04 1014.67 1015.39 1016.13 1017.01 1018.02 1018.76 1019.51 1020.07 1020.59 1020.97 1021.68
1012.24 1012.87 1013.64 1013.27 1012.72 1011.73 1009.06 1009.21 1008.66 1008.22 1007.62 1007.79 1007.24 1007.38 1007.67 1007.23 1006.94 1008.02 1008.81 1009.43 1009.92 1009.96 1009.92 1010.46 1010.80 1011.14 1011.34 1011.54 1012.09 1012.63 1013.54 1013.83 1014.69 1015.52 1016.26 1016.95 1017.68 1018.60 1019.29 1019.90 1020.58 1020.96 1021.40 1022.08
1011.55 1012.06 1012.43 1012.45 1012.41 1011.13 1009.36 1009.50 1009.05 1008.73 1008.81 1008.54 1008.59 1008.35 1008.37 1008.90 1010.04 1009.65 1010.55 1010.06 1010.63 1010.75 1010.63 1010.89 1011.35 1012.03 1012.34 1012.60 1012.89 1013.54 1014.01 1014.46 1015.14 1015.92 1016.71 1017.55 1018.24 1019.01 1019.80 1020.50 1021.08 1021.43 1022.03 1022.65
1011.18 1011.49 1011.49 1011.89 1011.85 1010.64 1009.32 1008.95 1009.01 1009.11 1008.79 1009.30 1008.49 1008.31 1008.30 1009.14 1009.49 1010.27 1010.73 1011.12 1011.33 1011.41 1010.96 1011.20 1011.61 1012.46 1012.78 1013.06 1013.37 1013.96 1014.54 1015.04 1015.72 1016.34 1017.25 1017.90 1018.74 1019.53 1020.19 1020.94 1021.43 1021.80 1022.49 1023.05
1010.64 1010.69 1010.58 1010.77 1010.07 1009.58 1008.89 1008.38 1008.52 1009.36 1009.47 1008.87 1008.62 1009.42 1008.24 1009.37 1010.44 1011.90 1011.51 1011.84 1011.88 1012.30 1011.45 1011.12 1011.94 1012.63 1013.08 1013.35 1013.73 1014.15 1014.83 1015.41 1016.05 1016.88 1017.60 1018.52 1019.17 1019.82 1020.55 1020.98 1021.51 1022.09 1022.75 1023.33
1009.93 1009.93 1010.10 1010.24 1009.15 1009.21 1008.76 1008.34 1008.29 1008.40 1009.12 1009.18 1009.00 1008.78 1008.76 1009.56 1010.32 1011.57 1011.59 1011.99 1012.14 1012.60 1011.59 1011.36 1011.99 1012.77 1013.44 1013.89 1014.07 1014.43 1014.94 1015.67 1016.23 1017.05 1017.87 1018.65 1019.26 1020.06 1021.07 1021.52 1021.77 1022.18 1022.64 1023.15
1010.26 1010.36 1009.84 1009.88 1009.75 1009.47 1008.79 1008.35 1008.13 1008.39 1008.79 1008.69 1008.84 1008.55 1008.62 1009.41 1010.01 1010.50 1010.88 1011.37 1012.12 1012.37 1011.91 1011.73 1012.48 1013.29 1013.95 1014.38 1014.55 1014.88 1015.35 1015.82 1016.73 1017.27 1018.15 1018.96 1019.61 1020.07 1020.69 1021.69 1022.06 1022.26 1022.44 1022.68
1010.66 1009.84 1010.03 1009.17 1009.19 1009.33 1008.64 1008.60 1008.54 1008.47 1008.57 1008.66 1008.48 1008.07 1008.49 1008.57 1008.67 1009.14 1010.00 1010.52 1011.06 1011.75 1012.16 1012.36 1013.02 1013.74 1014.29 1014.69 1014.97 1015.17 1015.62 1016.14 1016.75 1017.59 1018.28 1019.09 1019.84 1020.71 1021.05 1021.67 1022.22 1022.21 1022.47 1022.45
Thickness
5666 5656 5659 5672 5680 5684 5684 5686 5690 5709 5727 5720 5718 5723 5727 5735 5737 5738 5737 5737 5739 5740 5744 5740 5740 5729 5716 5704 5697 5689 5678 5672 5667 5661 5657 5654 5651 5649 5645 5641 5637 5633 5628 5628
5655 5654 5669 5677 5679 5679 5682 5678 5678 5695 5707 5705 5706 5708 5719 5725 5730 5734 5738 5739 5731 5733 5740 5736 5727 5718 5709 5693 5684 5674 5666 5659 5655 5652 5651 5648 5646 5640 5634 5628 5626 5624 5620 5616
5652 5669 5680 5674 5666 5666 5670 5663 5664 5669 5686 5696 5690 5698 5701 5723 5731 5737 5740 5743 5740 5727 5728 5729 5715 5705 5702 5688 5679 5669 5660 5652 5646 5644 5642 5640 5638 5630 5623 5618 5615 5613 5612 5610
5656 5666 5665 5660 5658 5659 5651 5671 5666 5666 5661 5658 5682 5667 5691 5709 5721 5734 5739 5732 5731 5729 5725 5721 5707 5699 5695 5686 5676 5667 5658 5649 5641 5637 5634 5629 5625 5620 5616 5612 5607 5601 5602 5600
5645 5649 5649 5648 5649 5658 5653 5663 5658 5652 5647 5651 5658 5650 5688 5710 5711 5703 5700 5700 5694 5694 5698 5708 5703 5694 5689 5680 5668 5658 5648 5642 5636 5628 5624 5618 5613 5610 5610 5606 5597 5591 5589 5588
5640 5652 5647 5648 5651 5647 5647 5641 5643 5641 5638 5626 5649 5649 5683 5686 5680 5678 5685 5679 5675 5676 5681 5686 5691 5689 5677 5664 5658 5648 5638 5631 5627 5620 5612 5606 5601 5603 5600 5593 5587 5581 5579 5577
5624 5632 5643 5646 5633 5637 5631 5621 5603 5598 5602 5613 5660 5651 5675 5667 5667 5662 5659 5658 5659 5660 5659 5662 5662 5658 5657 5648 5639 5638 5630 5623 5619 5613 5603 5596 5588 5589 5584 5579 5575 5571 5565 5561
5615 5621 5637 5647 5640 5628 5627 5617 5602 5594 5597 5617 5644 5638 5658 5662 5657 5648 5648 5645 5643 5643 5641 5641 5643 5636 5638 5637 5630 5621 5617 5610 5605 5601 5597 5588 5581 5580 5574 5567 5563 5560 5556 5550
5606 5615 5631 5629 5634 5631 5615 5602 5618 5598 5600 5581 5620 5652 5668 5626 5618 5627 5630 5629 5628 5633 5632 5632 5632 5630 5624 5619 5616 5611 5607 5598 5591 5586 5582 5575 5572 5569 5562 5558 5553 5549 5546 5538
5597 5588 5613 5611 5616 5617 5612 5609 5589 5584 5571 5576 5617 5623 5627 5609 5606 5614 5614 5611 5612 5617 5616 5614 5614 5616 5616 5614 5609 5600 5591 5584 5579 5577 5571 5562 5554 5549 5547 5546 5540 5534 5530 5523
5587 5586 5595 5597 5585 5591 5592 5585 5581 5584 5577 5567 5581 5605 5608 5593 5594 5600 5603 5599 5596 5595 5600 5600 5597 5595 5599 5596 5589 5582 5576 5569 5562 5558 5554 5548 5541 5535 5531 5528 5522 5517 5512 5507
5576 5571 5570 5580 5590 5584 5578 5568 5566 5542 5562 5567 5567 5588 5625 5605 5600 5595 5589 5591 5590 5579 5585 5583 5581 5582 5579 5572 5571 5564 5557 5550 5541 5535 5533 5528 5525 5518 5513 5508 5503 5500 5497 5493
5555 5545 5541 5556 5567 5569 5560 5561 5557 5563 5561 5556 5539 5564 5600 5602 5602 5594 5582 5581 5581 5580 5578 5576 5567 5562 5563 5555 5553 5548 5540 5533 5525 5520 5515 5507 5502 5501 5496 5489 5486 5480 5478 5477
5529 5534 5533 5535 5549 5530 5527 5535 5544 5537 5530 5539 5541 5549 5576 5579 5573 5577 5577 5575 5573 5569 5567 5565 5551 5549 5545 5534 5526 5527 5524 5519 5510 5502 5496 5489 5483 5476 5471 5468 5467 5463 5461 5457
5509 5500 5505 5516 5519 5514 5516 5527 5536 5530 5530 5517 5522 5531 5559 5567 5562 5562 5565 5564 5559 5556 5555 5548 5535 5534 5528 5516 5508 5502 5500 5498 5492 5483 5474 5467 5461 5455 5450 5447 5443 5442 5442 5441
5497 5486 5477 5486 5489 5491 5496 5521 5524 5524 5525 5526 5529 5532 5550 5549 5551 5552 5550 5552 5552 5545 5542 5534 5525 5516 5510 5501 5491 5482 5478 5475 5469 5464 5457 5451 5444 5440 5435 5429 5425 5422 5424 5422
5486 5478 5477 5484 5485 5484 5488 5515 5517 5518 5521 5520 5511 5528 5538 5535 5541 5543 5544 5545 5539 5530 5525 5517 5508 5500 5495 5486 5475 5467 5461 5456 5452 5443 5437 5430 5426 5419 5418 5413 5409 5404 5407 5402
5472 5470 5465 5469 5465 5443 5502 5521 5509 5505 5513 5518 5524 5528 5530 5538 5541 5540 5537 5531 5518 5511 5508 5500 5492 5486 5482 5474 5464 5455 5451 5442 5433 5425 5418 5407 5399 5396 5395 5392 5390 5389 5392 5389
5464 5458 5447 5444 5455 5472 5500 5512 5494 5494 5494 5513 5512 5516 5526 5532 5533 5532 5514 5507 5495 5488 5491 5484 5477 5472 5469 5462 5453 5442 5429 5427 5414 5404 5395 5390 5380 5380 5381 5378 5375 5376 5378 5374
5460 5457 5442 5449 5437 5434 5500 5492 5494 5489 5478 5503 5504 5496 5494 5502 5504 5494 5486 5484 5479 5477 5478 5472 5466 5461 5457 5452 5442 5429 5418 5413 5402 5388 5378 5370 5365 5364 5363 5360 5359 5362 5362 5359
5450 5440 5430 5438 5427 5447 5489 5476 5478 5462 5473 5481 5477 5481 5481 5469 5468 5476 5466 5463 5460 5463 5464 5461 5455 5445 5440 5436 5429 5418 5411 5404 5393 5383 5369 5360 5353 5350 5347 5345 5345 5347 5347 5346
5439 5431 5431 5429 5417 5424 5470 5471 5461 5461 5465 5464 5474 5477 5480 5477 5470 5463 5449 5443 5444 5445 5456 5455 5447 5435 5432 5425 5421 5413 5406 5397 5386 5377 5367 5358 5350 5343 5339 5336 5337 5339 5338 5337
5422 5430 5430 5434 5438 5453 5461 5460 5459 5450 5450 5458 5461 5456 5473 5459 5446 5426 5428 5432 5432 5427 5441 5451 5438 5428 5423 5418 5413 5407 5398 5391 5383 5372 5362 5353 5345 5339 5333 5333 5334 5333 5331 5329
5432 5435 5419 5422 5444 5439 5444 5453 5452 5449 5440 5443 5450 5455 5457 5441 5432 5421 5420 5422 5423 5419 5435 5441 5433 5421 5412 5407 5403 5398 5392 5384 5377 5368 5359 5350 5345 5339 5331 5328 5330 5329 5327 5326
5413 5411 5412 5404 5416 5421 5433 5437 5437 5435 5434 5440 5443 5448 5450 5432 5430 5432 5425 5421 5418 5416 5424 5429 5420 5409 5399 5393 5389 5383 5379 5375 5367 5362 5353 5346 5340 5335 5332 5326 5325 5325 5326 5325
5395 5401 5388 5397 5414 5405 5417 5420 5422 5425 5428 5431 5436 5444 5443 5446 5446 5441 5432 5431 5427 5418 5413 5413 5404 5394 5386 5379 5374 5370 5364 5361 5359 5352 5346 5341 5335 5326 5326 5322 5318 5321 5319 5320